Regional Weather Roundup
Issued by NWS

Home | Current Version | Previous Version | Graphics & Text | Print | Product List | Glossary On
Versions: 1 2 3 4 5 6 7 8 9 10 11 12 13 14 15 16 17 18 19 20 21 22 23 24 25 26 27 28 29 30 31 32 33 34 35 36 37 38 39 40 41 42 43 44 45 46 47 48 49 50
000
ASUS43 KOAX 222110
RWRNE

WEATHER ROUNDUP FOR NEBRASKA
NATIONAL WEATHER SERVICE OMAHA NE
400 PM CDT WED OCT 22 2014

NOTES: SATELLITE DATA IS BEING USED TO AUGMENT CLOUD COVER ABOVE
       12000 FEET.
       "FAIR" INDICATES FEW OR NO CLOUDS BELOW 12,000 FEET WITH NO
       SIGNIFICANT WEATHER AND/OR OBSTRUCTIONS TO VISIBILITY.

  * THESE STATIONS DO NOT REPORT WEATHER SUCH AS RAIN...SNOW OR FOG.

NEZ001>004-019>022-054>056-222200-
NEBRASKA PANHANDLE

CITY           SKY/WX    TMP DP  RH WIND       PRES   REMARKS
SCOTTSBLUFF    MOSUNNY   67  30  25 NW14G20   30.03F
ALLIANCE       SUNNY     63  33  32 NW9       30.04S
CHADRON        SUNNY     63  32  31 W10G17    30.02F
KIMBALL        LGT RAIN  61  33  34 CALM      30.05S
SIDNEY         SUNNY     66  35  31 N12G18    30.06F
$$

NEZ057>060-069>072-079>082-222200-
SOUTHWEST NEBRASKA

CITY           SKY/WX    TMP DP  RH WIND       PRES   REMARKS
NORTH PLATTE   MOSUNNY   69  52  54 SW3       30.00S
IMPERIAL       SUNNY     71  44  37 NW6       30.01S
LEXINGTON      CLOUDY    65  56  72 CALM      30.00R
MCCOOK         SUNNY     71  51  49 NW7       30.00S
OGALLALA       SUNNY     71  35  27 N10       30.02S
$$

NEZ005>010-023>029-035>040-094-222200-
NORTH CENTRAL NEBRASKA

CITY           SKY/WX    TMP DP  RH WIND       PRES   REMARKS
VALENTINE      MOSUNNY   65  42  43 N9        30.00S
AINSWORTH      PTSUNNY   61  49  65 W6        30.01S
BROKEN BOW     CLOUDY    63  56  78 N5        30.00S
O`NEILL        CLOUDY    57  55  92 NW9       30.00R
ORD            CLOUDY    61  57  87 W5        29.99R
THEDFORD       MOSUNNY   66  50  57 NW5       30.01F
$$

NEZ041-046>049-061>064-073>077-083>087-222200-
SOUTH CENTRAL NEBRASKA

CITY           SKY/WX    TMP DP  RH WIND       PRES   REMARKS
GRAND ISLAND   RAIN      62  60  93 SW12      30.01R FOG
AURORA         RAIN      62  62 100 W7        30.01R
HASTINGS       RAIN      61  58  90 SW8       30.01S FOG
HEBRON         PTSUNNY   76  50  39 S16G26    29.97S
HOLDREGE       CLOUDY    63  59  87 CALM      30.00R
KEARNEY *      CLOUDY    63  57  82 SE6       30.01R
YORK           LGT RAIN  64  59  82 W17G29    29.99R
$$

NEZ011>018-030>034-042>045-222200-
NORTHEAST NEBRASKA

CITY           SKY/WX    TMP DP  RH WIND       PRES   REMARKS
NORFOLK        RAIN      62  60  93 W16       29.98R FOG
ALBION         RAIN      59  58  94 S8        30.01R
BLAIR          PTSUNNY   75  53  45 SE17G23   29.98F
COLUMBUS *     CLOUDY    68  55  64 W17G24    30.00R
FREMONT        PTSUNNY   79  50  36 S14G26    29.97S
TEKAMAH        CLOUDY    75  54  47 SE18      29.97F
WAYNE          CLOUDY    76  53  44 SW13G20   29.94S
$$

NEZ050>053-065>068-078-088>093-222200-
SOUTHEAST NEBRASKA

CITY           SKY/WX    TMP DP  RH WIND       PRES   REMARKS
LINCOLN        MOSUNNY   80  52  37 S21G31    29.97F
OMAHA EPPLEY   PTSUNNY   75  53  46 SE20      29.99F
BEATRICE       MOSUNNY   78  52  40 S24       29.99F
FALLS CITY     LGT RAIN  77  56  48 S17G23    30.03F
NEBRASKA CITY  SUNNY     76  48  37 S17G24    30.02F
PLATTSMOUTH    MOSUNNY   75  51  42 SE16G22   30.01F
$$

NEZ044-045-051>053-067-222200-
OMAHA AREA

CITY           SKY/WX    TMP DP  RH WIND       PRES   REMARKS
OMAHA EPPLEY   PTSUNNY   75  53  46 SE20      29.99F
BLAIR          PTSUNNY   75  53  45 SE17G23   29.98F
FREMONT        PTSUNNY   79  50  36 S14G26    29.97S
MILLARD        MOSUNNY   75  56  51 SE16      29.98F
OFFUTT AFB     PTSUNNY   76  56  50 SE16      29.99F
PLATTSMOUTH    MOSUNNY   75  51  42 SE16G22   30.01F
WAHOO          MOCLDY    80  47  32 S20G29    29.97S
$$



USA.gov is the U.S. government's official web portal to all federal, state and local government web resources and services.